MAS772 WMKK-VTCC

Flight info

Callsign MAS772
Flight time 2h 14m
Altitude 36000
Route BIKDU1D BIKDU Y501 RINBA R325 VAS A457 HTY A464 UPNEP W19 BKK A464 ENBAT ENBAT2B
Aircraft B738/M-SDE2E3FGHIRWXY/LB1

Departure

Time 2026-04-22 09:42
Airport Kuala Lumpur International Airport (WMKK)

Arrival

Time 2026-04-22 11:56
Airport Chiang Mai International Airport (VTCC)
Time Latitude Longitude Altitude Speed Heading
2026-04-22 09:07 2.75275 101.70664 76 ft 0 kts 326°
2026-04-22 09:29 2.75270 101.70667 75 ft 2 kts 326°
2026-04-22 09:29 2.75258 101.70675 75 ft 2 kts 326°
2026-04-22 09:30 2.75245 101.70683 75 ft 2 kts 326°
2026-04-22 09:30 2.75233 101.70692 75 ft 2 kts 326°
2026-04-22 09:30 2.75219 101.70696 75 ft 2 kts 359°
2026-04-22 09:30 2.75204 101.70694 75 ft 2 kts 24°
2026-04-22 09:31 2.75191 101.70686 75 ft 1 kts 49°
2026-04-22 09:31 2.75188 101.70682 75 ft 0 kts 58°
2026-04-22 09:31 2.75201 101.70699 75 ft 2 kts 56°
2026-04-22 09:31 2.75204 101.70704 75 ft 0 kts 56°
2026-04-22 09:35 2.75218 101.70725 75 ft 3 kts 56°
2026-04-22 09:35 2.75231 101.70744 75 ft 2 kts 56°
2026-04-22 09:35 2.75239 101.70756 75 ft 1 kts 56°
2026-04-22 09:35 2.75250 101.70772 75 ft 7 kts 56°
2026-04-22 09:36 2.75292 101.70834 75 ft 10 kts 56°
2026-04-22 09:36 2.75331 101.70891 75 ft 9 kts 56°
2026-04-22 09:36 2.75367 101.70943 75 ft 8 kts 56°
2026-04-22 09:36 2.75400 101.70993 75 ft 9 kts 57°
2026-04-22 09:37 2.75441 101.71054 75 ft 11 kts 56°
2026-04-22 09:37 2.75484 101.71119 75 ft 10 kts 56°
2026-04-22 09:37 2.75526 101.71181 75 ft 11 kts 56°
2026-04-22 09:37 2.75577 101.71255 75 ft 12 kts 56°
2026-04-22 09:38 2.75614 101.71320 75 ft 8 kts 84°
2026-04-22 09:38 2.75558 101.71380 75 ft 16 kts 146°
2026-04-22 09:38 2.75466 101.71442 75 ft 15 kts 146°
2026-04-22 09:38 2.75380 101.71500 76 ft 16 kts 146°
2026-04-22 09:39 2.75266 101.71575 75 ft 20 kts 147°
2026-04-22 09:39 2.75151 101.71652 75 ft 19 kts 146°
2026-04-22 09:39 2.75036 101.71730 76 ft 22 kts 145°
2026-04-22 09:39 2.74899 101.71822 75 ft 22 kts 146°
2026-04-22 09:40 2.74793 101.71893 75 ft 15 kts 146°
2026-04-22 09:40 2.74713 101.71950 75 ft 10 kts 131°
2026-04-22 09:40 2.74721 101.72019 75 ft 12 kts 57°
2026-04-22 09:40 2.74770 101.72091 76 ft 11 kts 55°
2026-04-22 09:41 2.74815 101.72156 76 ft 11 kts 55°
2026-04-22 09:41 2.74853 101.72189 76 ft 6 kts 353°
2026-04-22 09:41 2.74908 101.72156 76 ft 12 kts 325°
2026-04-22 09:41 2.75132 101.72006 76 ft 76 kts 326°
2026-04-22 09:42 2.75785 101.71567 76 ft 146 kts 326°
2026-04-22 09:42 2.76781 101.70901 235 ft 188 kts 326°
2026-04-22 09:42 2.77795 101.70210 1256 ft 174 kts 326°
2026-04-22 09:42 2.78831 101.69501 1821 ft 188 kts 327°
2026-04-22 09:43 2.79952 101.68776 2349 ft 197 kts 333°
2026-04-22 09:43 2.81266 101.68285 2816 ft 210 kts 346°
2026-04-22 09:43 2.82749 101.67878 3242 ft 228 kts 345°
2026-04-22 09:43 2.84315 101.67375 3745 ft 245 kts 342°
2026-04-22 09:44 2.85966 101.66787 4374 ft 256 kts 341°
2026-04-22 09:44 2.87672 101.66162 4959 ft 269 kts 341°
2026-04-22 09:44 2.89473 101.65524 5756 ft 273 kts 344°
2026-04-22 09:44 2.91334 101.65215 6514 ft 276 kts
2026-04-22 09:45 2.93193 101.65702 7304 ft 279 kts 26°
2026-04-22 09:45 2.94874 101.66670 8035 ft 283 kts 30°
2026-04-22 09:45 2.96555 101.67709 8719 ft 289 kts 30°
2026-04-22 09:45 2.98279 101.68756 9471 ft 292 kts 29°
2026-04-22 09:46 3.00055 101.69805 10186 ft 296 kts 29°
2026-04-22 09:46 3.01872 101.70863 10657 ft 310 kts 28°
2026-04-22 09:46 3.03775 101.71964 11098 ft 324 kts 28°
2026-04-22 09:46 3.05780 101.73122 11492 ft 339 kts 28°
2026-04-22 09:47 3.08022 101.74000 11831 ft 352 kts
2026-04-22 09:47 3.10484 101.73862 12439 ft 356 kts 344°
2026-04-22 09:47 3.12794 101.72990 13109 ft 359 kts 335°
2026-04-22 09:47 3.15082 101.71871 13777 ft 364 kts 333°
2026-04-22 09:48 3.17345 101.70731 14456 ft 369 kts 333°
2026-04-22 09:48 3.19667 101.69613 15191 ft 372 kts 335°
2026-04-22 09:48 3.22033 101.68532 15820 ft 377 kts 336°
2026-04-22 09:48 3.24478 101.67460 16484 ft 381 kts 336°
2026-04-22 09:49 3.26930 101.66409 17170 ft 385 kts 337°
2026-04-22 09:49 3.29391 101.65364 17805 ft 389 kts 337°
2026-04-22 09:49 3.31916 101.64295 18438 ft 393 kts 337°
2026-04-22 09:49 3.34433 101.63229 19007 ft 397 kts 337°
2026-04-22 09:50 3.36998 101.62138 19595 ft 401 kts 337°
2026-04-22 09:50 3.39570 101.61043 20128 ft 405 kts 337°
2026-04-22 09:50 3.42174 101.59934 20662 ft 409 kts 337°
2026-04-22 09:50 3.44810 101.58810 21168 ft 414 kts 337°
2026-04-22 09:51 3.47486 101.57669 21785 ft 418 kts 337°
2026-04-22 09:51 3.50197 101.56512 22394 ft 423 kts 337°
2026-04-22 09:51 3.52917 101.55351 23039 ft 427 kts 337°
2026-04-22 09:51 3.55676 101.54173 23653 ft 431 kts 338°
2026-04-22 09:52 3.58425 101.52999 24285 ft 434 kts 338°
2026-04-22 09:52 3.61233 101.51800 24884 ft 437 kts 338°
2026-04-22 09:52 3.64043 101.50599 25497 ft 440 kts 338°
2026-04-22 09:52 3.66845 101.49402 26058 ft 443 kts 338°
2026-04-22 09:53 3.69692 101.48186 26588 ft 447 kts 338°
2026-04-22 09:53 3.72586 101.46950 27154 ft 450 kts 339°
2026-04-22 09:53 3.75486 101.45712 27690 ft 453 kts 338°
2026-04-22 09:53 3.78366 101.44482 28217 ft 455 kts 339°
2026-04-22 09:54 3.81288 101.43233 28751 ft 458 kts 339°
2026-04-22 09:54 3.84262 101.41962 29218 ft 462 kts 339°
2026-04-22 09:54 3.87215 101.40688 29657 ft 466 kts 338°
2026-04-22 09:54 3.90182 101.39382 30225 ft 466 kts 338°
2026-04-22 09:55 3.93149 101.38059 31001 ft 462 kts 338°
2026-04-22 09:55 3.96062 101.36754 31703 ft 458 kts 338°
2026-04-22 09:55 3.98988 101.35442 32320 ft 456 kts 338°
2026-04-22 09:55 4.01878 101.34148 32831 ft 456 kts 338°
2026-04-22 09:56 4.04780 101.32851 33334 ft 456 kts 338°
2026-04-22 09:56 4.07664 101.31564 33881 ft 455 kts 338°
2026-04-22 09:56 4.10569 101.30268 34421 ft 454 kts 338°
2026-04-22 09:56 4.13475 101.28972 34920 ft 453 kts 338°
2026-04-22 09:57 4.16354 101.27689 35364 ft 452 kts 337°
2026-04-22 09:57 4.19212 101.26417 35782 ft 452 kts 337°
2026-04-22 09:57 4.22166 101.25102 36196 ft 452 kts 337°
2026-04-22 09:57 4.25056 101.23815 36582 ft 452 kts 337°
2026-04-22 09:58 4.27947 101.22528 36966 ft 452 kts 337°
2026-04-22 09:58 4.30840 101.21240 37318 ft 451 kts 337°
2026-04-22 09:58 4.33742 101.19949 37653 ft 451 kts 337°
2026-04-22 09:58 4.36625 101.18665 37801 ft 454 kts 336°
2026-04-22 09:59 4.42467 101.16065 37813 ft 462 kts 336°
2026-04-22 09:59 4.48430 101.13409 37813 ft 469 kts 336°
2026-04-22 10:00 4.54475 101.10718 37809 ft 475 kts 336°
2026-04-22 10:00 4.60536 101.08031 37809 ft 474 kts 337°
2026-04-22 10:01 4.66576 101.05421 37811 ft 472 kts 338°
2026-04-22 10:01 4.72654 101.02816 37815 ft 471 kts 338°
2026-04-22 10:02 4.78740 101.00204 37818 ft 471 kts 338°
2026-04-22 10:02 4.84765 100.97612 37828 ft 470 kts 338°
2026-04-22 10:03 4.90785 100.95018 37838 ft 471 kts 338°
2026-04-22 10:03 4.96855 100.92400 37843 ft 472 kts 338°
2026-04-22 10:04 5.02943 100.89772 37841 ft 471 kts 338°
2026-04-22 10:04 5.08981 100.87163 37835 ft 472 kts 338°
2026-04-22 10:05 5.15040 100.84544 37832 ft 471 kts 338°
2026-04-22 10:05 5.21091 100.81928 37821 ft 471 kts 338°
2026-04-22 10:06 5.27155 100.79307 37811 ft 471 kts 338°
2026-04-22 10:06 5.33188 100.76698 37802 ft 472 kts 338°
2026-04-22 10:07 5.39259 100.74071 37795 ft 472 kts 338°
2026-04-22 10:07 5.45304 100.71458 37791 ft 472 kts 338°
2026-04-22 10:08 5.51353 100.68843 37784 ft 472 kts 338°
2026-04-22 10:08 5.57382 100.66235 37788 ft 472 kts 338°
2026-04-22 10:09 5.63443 100.63612 37793 ft 471 kts 338°
2026-04-22 10:09 5.69479 100.60999 37796 ft 472 kts 338°
2026-04-22 10:10 5.75524 100.58383 37800 ft 472 kts 338°
2026-04-22 10:10 5.81033 100.55998 37795 ft 472 kts 338°
2026-04-22 10:11 5.87128 100.53359 37785 ft 473 kts 338°
2026-04-22 10:11 5.93152 100.50749 37777 ft 471 kts 338°
2026-04-22 10:12 5.99229 100.48116 37775 ft 471 kts 338°
2026-04-22 10:12 6.05279 100.45496 37780 ft 472 kts 338°
2026-04-22 10:13 6.11317 100.42879 37774 ft 472 kts 338°
2026-04-22 10:13 6.17492 100.40422 37774 ft 471 kts 345°
2026-04-22 10:14 6.23935 100.39500 37775 ft 468 kts 360°
2026-04-22 10:14 6.30487 100.39544 37778 ft 467 kts
2026-04-22 10:15 6.36997 100.39768 37785 ft 467 kts
2026-04-22 10:15 6.43500 100.39962 37788 ft 466 kts
2026-04-22 10:16 6.50007 100.40105 37793 ft 466 kts
2026-04-22 10:16 6.56514 100.40174 37791 ft 466 kts
2026-04-22 10:17 6.63051 100.39983 37790 ft 466 kts 359°
2026-04-22 10:17 6.69550 100.39705 37787 ft 465 kts 359°
2026-04-22 10:18 6.76052 100.39435 37790 ft 467 kts 359°
2026-04-22 10:18 6.82588 100.39185 37791 ft 466 kts 359°
2026-04-22 10:19 6.89092 100.38950 37789 ft 465 kts 360°
2026-04-22 10:19 6.95596 100.38760 37786 ft 464 kts
2026-04-22 10:20 7.02044 100.38955 37782 ft 462 kts
2026-04-22 10:20 7.08529 100.39319 37778 ft 463 kts
2026-04-22 10:21 7.15015 100.39678 37780 ft 463 kts
2026-04-22 10:21 7.21509 100.40006 37785 ft 464 kts
2026-04-22 10:22 7.28001 100.40311 37784 ft 463 kts
2026-04-22 10:22 7.34446 100.40601 37784 ft 461 kts
2026-04-22 10:23 7.40919 100.40889 37784 ft 461 kts
2026-04-22 10:23 7.47357 100.41174 37782 ft 461 kts
2026-04-22 10:24 7.53789 100.41459 37783 ft 460 kts
2026-04-22 10:24 7.60178 100.41742 37788 ft 461 kts
2026-04-22 10:25 7.66627 100.42028 37791 ft 461 kts
2026-04-22 10:25 7.73057 100.42313 37788 ft 461 kts
2026-04-22 10:26 7.79508 100.42600 37793 ft 461 kts
2026-04-22 10:26 7.85938 100.42884 37792 ft 460 kts
2026-04-22 10:27 7.92369 100.43169 37792 ft 461 kts
2026-04-22 10:27 7.98815 100.43456 37792 ft 461 kts
2026-04-22 10:28 8.05248 100.43742 37791 ft 462 kts
2026-04-22 10:28 8.11732 100.44012 37786 ft 463 kts
2026-04-22 10:29 8.18178 100.44228 37780 ft 462 kts
2026-04-22 10:29 8.24620 100.44432 37778 ft 462 kts
2026-04-22 10:30 8.31118 100.44640 37772 ft 462 kts
2026-04-22 10:30 8.37585 100.44852 37775 ft 463 kts
2026-04-22 10:31 8.44073 100.45068 37779 ft 463 kts
2026-04-22 10:31 8.50525 100.45283 37776 ft 464 kts
2026-04-22 10:32 8.56986 100.45499 37778 ft 464 kts
2026-04-22 10:32 8.63463 100.45716 37778 ft 464 kts
2026-04-22 10:33 8.69971 100.45934 37781 ft 464 kts
2026-04-22 10:33 8.76423 100.46150 37782 ft 463 kts
2026-04-22 10:34 8.82945 100.46369 37779 ft 464 kts
2026-04-22 10:34 8.89423 100.46587 37777 ft 464 kts
2026-04-22 10:35 8.95950 100.46808 37780 ft 465 kts
2026-04-22 10:35 9.02418 100.47027 37781 ft 465 kts
2026-04-22 10:36 9.08933 100.47248 37781 ft 465 kts
2026-04-22 10:36 9.15406 100.47469 37780 ft 465 kts
2026-04-22 10:37 9.25146 100.47800 37788 ft 465 kts
2026-04-22 10:38 9.31641 100.48022 37794 ft 465 kts
2026-04-22 10:38 9.38139 100.48243 37789 ft 464 kts
2026-04-22 10:39 9.44615 100.48463 37788 ft 464 kts
2026-04-22 10:39 9.51164 100.48687 37787 ft 465 kts
2026-04-22 10:40 9.57651 100.48908 37789 ft 465 kts
2026-04-22 10:40 9.64137 100.49129 37779 ft 465 kts
2026-04-22 10:41 9.70660 100.49352 37779 ft 466 kts
2026-04-22 10:41 9.77144 100.49598 37782 ft 466 kts
2026-04-22 10:42 9.83704 100.49870 37780 ft 465 kts
2026-04-22 10:42 9.90188 100.50142 37783 ft 465 kts
2026-04-22 10:43 9.96675 100.50411 37783 ft 464 kts
2026-04-22 10:43 10.03157 100.50678 37784 ft 466 kts
2026-04-22 10:44 10.09672 100.50944 37786 ft 467 kts
2026-04-22 10:44 10.16125 100.51208 37783 ft 466 kts
2026-04-22 10:45 10.22637 100.51474 37781 ft 465 kts
2026-04-22 10:45 10.29173 100.51741 37782 ft 466 kts
2026-04-22 10:46 10.35645 100.52006 37783 ft 466 kts
2026-04-22 10:46 10.42193 100.52276 37780 ft 466 kts
2026-04-22 10:47 10.48707 100.52544 37777 ft 466 kts
2026-04-22 10:47 10.55220 100.52814 37773 ft 467 kts
2026-04-22 10:48 10.61763 100.53084 37773 ft 467 kts
2026-04-22 10:48 10.68230 100.53351 37768 ft 467 kts
2026-04-22 10:49 10.74769 100.53622 37768 ft 467 kts
2026-04-22 10:49 10.81315 100.53892 37770 ft 467 kts
2026-04-22 10:50 10.87867 100.54162 37777 ft 467 kts
2026-04-22 10:50 10.94337 100.54430 37775 ft 467 kts
2026-04-22 10:51 11.00873 100.54700 37774 ft 467 kts
2026-04-22 10:51 11.07361 100.54942 37773 ft 468 kts
2026-04-22 10:52 11.13881 100.55164 37773 ft 467 kts
2026-04-22 10:52 11.20404 100.55386 37774 ft 468 kts
2026-04-22 10:53 11.26962 100.55610 37772 ft 468 kts
2026-04-22 10:53 11.33519 100.55836 37773 ft 467 kts
2026-04-22 10:54 11.40069 100.56065 37775 ft 467 kts
2026-04-22 10:54 11.46557 100.56291 37777 ft 468 kts
2026-04-22 10:55 11.53089 100.56520 37777 ft 468 kts
2026-04-22 10:55 11.59618 100.56749 37779 ft 468 kts
2026-04-22 10:56 11.66186 100.56979 37777 ft 467 kts
2026-04-22 10:56 11.72704 100.57207 37775 ft 467 kts
2026-04-22 10:57 11.79245 100.57437 37776 ft 468 kts
2026-04-22 10:57 11.85733 100.57664 37775 ft 468 kts
2026-04-22 10:58 11.92260 100.57893 37771 ft 469 kts
2026-04-22 10:58 11.98843 100.58124 37768 ft 469 kts
2026-04-22 10:59 12.05396 100.58272 37766 ft 470 kts
2026-04-22 10:59 12.11963 100.58260 37765 ft 469 kts
2026-04-22 11:00 12.18472 100.58221 37761 ft 468 kts
2026-04-22 11:00 12.25049 100.58193 37763 ft 469 kts
2026-04-22 11:01 12.31594 100.58180 37761 ft 469 kts
2026-04-22 11:01 12.38126 100.58175 37760 ft 469 kts
2026-04-22 11:02 12.44672 100.58173 37763 ft 469 kts
2026-04-22 11:02 12.51240 100.58173 37764 ft 469 kts
2026-04-22 11:03 12.57764 100.58174 37769 ft 469 kts
2026-04-22 11:03 12.64371 100.58175 37761 ft 470 kts
2026-04-22 11:04 12.70951 100.58175 37762 ft 469 kts
2026-04-22 11:04 12.77509 100.58174 37758 ft 469 kts
2026-04-22 11:05 12.84053 100.58174 37755 ft 469 kts
2026-04-22 11:05 12.90583 100.58175 37746 ft 469 kts
2026-04-22 11:06 12.97144 100.58175 37741 ft 469 kts
2026-04-22 11:06 13.03679 100.58174 37744 ft 469 kts
2026-04-22 11:07 13.10259 100.58174 37740 ft 469 kts
2026-04-22 11:07 13.16773 100.58175 37741 ft 468 kts
2026-04-22 11:08 13.23333 100.58174 37745 ft 468 kts
2026-04-22 11:08 13.29897 100.58175 37742 ft 468 kts
2026-04-22 11:09 13.36415 100.58179 37747 ft 468 kts
2026-04-22 11:09 13.42961 100.58302 37741 ft 468 kts
2026-04-22 11:10 13.49531 100.58500 37744 ft 469 kts
2026-04-22 11:10 13.56066 100.58701 37745 ft 469 kts
2026-04-22 11:11 13.62638 100.58893 37740 ft 469 kts
2026-04-22 11:11 13.69213 100.59075 37738 ft 470 kts
2026-04-22 11:12 13.75794 100.59254 37734 ft 471 kts
2026-04-22 11:12 13.82357 100.59429 37740 ft 470 kts
2026-04-22 11:13 13.88917 100.59317 37732 ft 470 kts 353°
2026-04-22 11:13 13.95329 100.57930 37734 ft 470 kts 343°
2026-04-22 11:14 14.01570 100.55891 37733 ft 469 kts 341°
2026-04-22 11:14 14.07752 100.53733 37731 ft 470 kts 341°
2026-04-22 11:15 14.13994 100.51583 37722 ft 470 kts 341°
2026-04-22 11:15 14.20249 100.49474 37716 ft 469 kts 342°
2026-04-22 11:16 14.26485 100.47399 37719 ft 469 kts 342°
2026-04-22 11:16 14.32673 100.45351 37365 ft 457 kts 342°
2026-04-22 11:16 14.35693 100.44352 37076 ft 448 kts 342°
2026-04-22 11:17 14.38619 100.43385 36787 ft 439 kts 342°
2026-04-22 11:17 14.41528 100.42423 36505 ft 437 kts 342°
2026-04-22 11:17 14.44441 100.41459 36228 ft 442 kts 342°
2026-04-22 11:17 14.47398 100.40479 35945 ft 443 kts 342°
2026-04-22 11:18 14.50336 100.39507 35656 ft 439 kts 342°
2026-04-22 11:18 14.53230 100.38547 35371 ft 435 kts 342°
2026-04-22 11:18 14.56110 100.37592 35093 ft 435 kts 342°
2026-04-22 11:18 14.59005 100.36633 34814 ft 437 kts 342°
2026-04-22 11:19 14.61917 100.35667 34277 ft 438 kts 342°
2026-04-22 11:19 14.64831 100.34702 33791 ft 444 kts 342°
2026-04-22 11:19 14.67823 100.33710 33694 ft 454 kts 342°
2026-04-22 11:20 14.73963 100.31676 33694 ft 471 kts 342°
2026-04-22 11:20 14.80287 100.29577 33682 ft 483 kts 342°
2026-04-22 11:21 14.86675 100.27455 33680 ft 480 kts 342°
2026-04-22 11:21 14.93052 100.25336 33675 ft 480 kts 342°
2026-04-22 11:22 14.99431 100.23216 33671 ft 479 kts 342°
2026-04-22 11:22 15.05805 100.21098 33669 ft 479 kts 342°
2026-04-22 11:23 15.12167 100.18983 33666 ft 479 kts 342°
2026-04-22 11:23 15.18550 100.16858 33665 ft 481 kts 342°
2026-04-22 11:24 15.24939 100.14731 33663 ft 482 kts 342°
2026-04-22 11:24 15.31348 100.12596 33664 ft 483 kts 342°
2026-04-22 11:25 15.37723 100.10471 33664 ft 481 kts 342°
2026-04-22 11:25 15.44105 100.08343 33661 ft 478 kts 341°
2026-04-22 11:26 15.50418 100.06235 33655 ft 479 kts 341°
2026-04-22 11:26 15.56833 100.04091 33653 ft 482 kts 341°
2026-04-22 11:27 15.63194 100.01964 33658 ft 482 kts 341°
2026-04-22 11:27 15.69588 99.99825 33680 ft 482 kts 341°
2026-04-22 11:28 15.76009 99.97676 33673 ft 481 kts 341°
2026-04-22 11:28 15.82356 99.95552 33679 ft 481 kts 341°
2026-04-22 11:29 15.88767 99.93404 33668 ft 480 kts 341°
2026-04-22 11:29 15.95142 99.91265 33678 ft 481 kts 341°
2026-04-22 11:30 16.01522 99.89123 33685 ft 481 kts 341°
2026-04-22 11:30 16.07898 99.86983 33682 ft 481 kts 341°
2026-04-22 11:31 16.14298 99.84832 33679 ft 481 kts 341°
2026-04-22 11:31 16.20669 99.82690 33681 ft 481 kts 341°
2026-04-22 11:32 16.27047 99.80543 33691 ft 481 kts 341°
2026-04-22 11:32 16.33437 99.78391 33692 ft 481 kts 341°
2026-04-22 11:33 16.39815 99.76252 33698 ft 481 kts 341°
2026-04-22 11:33 16.46223 99.74129 33690 ft 481 kts 341°
2026-04-22 11:34 16.52627 99.72014 33690 ft 481 kts 341°
2026-04-22 11:34 16.59000 99.69906 33678 ft 481 kts 341°
2026-04-22 11:35 16.65398 99.67785 33678 ft 481 kts 341°
2026-04-22 11:35 16.71801 99.65660 33685 ft 481 kts 341°
2026-04-22 11:36 16.78178 99.63541 33681 ft 481 kts 341°
2026-04-22 11:36 16.84581 99.61411 33696 ft 481 kts 341°
2026-04-22 11:37 16.90957 99.59290 33697 ft 482 kts 340°
2026-04-22 11:37 16.97367 99.57156 33696 ft 481 kts 340°
2026-04-22 11:38 17.03742 99.55031 33697 ft 480 kts 340°
2026-04-22 11:38 17.13234 99.51866 32347 ft 460 kts 340°
2026-04-22 11:39 17.16246 99.50864 31815 ft 445 kts 340°
2026-04-22 11:39 17.19134 99.49902 31230 ft 433 kts 340°
2026-04-22 11:39 17.21985 99.48950 30401 ft 427 kts 341°
2026-04-22 11:39 17.24794 99.48010 29687 ft 418 kts 341°
2026-04-22 11:40 17.27500 99.47104 29113 ft 407 kts 341°
2026-04-22 11:40 17.30160 99.46214 28589 ft 395 kts 341°
2026-04-22 11:40 17.32785 99.45333 28090 ft 395 kts 341°
2026-04-22 11:40 17.35443 99.44440 27575 ft 408 kts 341°
2026-04-22 11:41 17.38149 99.43531 27028 ft 404 kts 341°
2026-04-22 11:41 17.40803 99.42642 26508 ft 392 kts 341°
2026-04-22 11:41 17.43372 99.41783 26024 ft 388 kts 341°
2026-04-22 11:41 17.45963 99.40916 25501 ft 386 kts 341°
2026-04-22 11:42 17.48514 99.40060 25000 ft 384 kts 341°
2026-04-22 11:42 17.51059 99.39201 24499 ft 382 kts 340°
2026-04-22 11:42 17.53568 99.38345 24000 ft 380 kts 340°
2026-04-22 11:42 17.56052 99.37491 23501 ft 378 kts 340°
2026-04-22 11:43 17.58568 99.36624 22997 ft 375 kts 340°
2026-04-22 11:43 17.61037 99.35774 22502 ft 373 kts 340°
2026-04-22 11:43 17.63493 99.34930 22016 ft 371 kts 340°
2026-04-22 11:43 17.65954 99.34084 21535 ft 369 kts 340°
2026-04-22 11:44 17.68373 99.33252 21043 ft 367 kts 340°
2026-04-22 11:44 17.70800 99.32418 20548 ft 366 kts 340°
2026-04-22 11:44 17.73222 99.31586 20054 ft 364 kts 340°
2026-04-22 11:44 17.75615 99.30763 19566 ft 362 kts 340°
2026-04-22 11:45 17.78020 99.29937 19070 ft 360 kts 340°
2026-04-22 11:45 17.80398 99.29119 18583 ft 358 kts 340°
2026-04-22 11:45 17.82754 99.28309 18101 ft 355 kts 340°
2026-04-22 11:45 17.85083 99.27506 17629 ft 352 kts 340°
2026-04-22 11:46 17.87405 99.26707 17155 ft 349 kts 340°
2026-04-22 11:46 17.89709 99.25912 16693 ft 347 kts 340°
2026-04-22 11:46 17.92010 99.25120 16219 ft 344 kts 340°
2026-04-22 11:46 17.94276 99.24339 15755 ft 342 kts 340°
2026-04-22 11:47 17.96511 99.23569 15292 ft 339 kts 341°
2026-04-22 11:47 17.98759 99.22793 14828 ft 336 kts 341°
2026-04-22 11:47 18.00928 99.21868 14298 ft 335 kts 333°
2026-04-22 11:47 18.02939 99.20680 13825 ft 332 kts 328°
2026-04-22 11:48 18.04900 99.19383 13369 ft 329 kts 328°
2026-04-22 11:48 18.06815 99.18113 12925 ft 326 kts 329°
2026-04-22 11:48 18.08737 99.16882 12474 ft 323 kts 329°
2026-04-22 11:48 18.10667 99.15687 12038 ft 320 kts 330°
2026-04-22 11:49 18.12612 99.14508 11600 ft 317 kts 330°
2026-04-22 11:49 18.14493 99.13379 11296 ft 310 kts 330°
2026-04-22 11:49 18.16347 99.12268 11025 ft 303 kts 330°
2026-04-22 11:49 18.18191 99.11162 10640 ft 305 kts 330°
2026-04-22 11:50 18.20116 99.10005 10261 ft 337 kts 330°
2026-04-22 11:50 18.22203 99.08750 9865 ft 359 kts 330°
2026-04-22 11:50 18.24409 99.07423 9467 ft 368 kts 330°
2026-04-22 11:50 18.26637 99.06081 9068 ft 367 kts 329°
2026-04-22 11:51 18.28856 99.04745 8673 ft 366 kts 329°
2026-04-22 11:51 18.31071 99.03410 8278 ft 366 kts 329°
2026-04-22 11:51 18.33286 99.02076 7879 ft 366 kts 329°
2026-04-22 11:51 18.35486 99.00750 7480 ft 366 kts 329°
2026-04-22 11:52 18.37829 98.99669 7073 ft 367 kts 342°
2026-04-22 11:52 18.40319 98.99091 6708 ft 365 kts 349°
2026-04-22 11:52 18.42843 98.98721 6348 ft 366 kts 352°
2026-04-22 11:52 18.45373 98.98394 5984 ft 364 kts 352°
2026-04-22 11:53 18.47896 98.98045 5623 ft 366 kts 351°
2026-04-22 11:53 18.50409 98.97660 5269 ft 364 kts 351°
2026-04-22 11:53 18.52920 98.97244 4923 ft 363 kts 350°
2026-04-22 11:53 18.55424 98.96809 4578 ft 362 kts 350°
2026-04-22 11:54 18.57910 98.96383 4232 ft 360 kts 352°
2026-04-22 11:54 18.60383 98.96168 3882 ft 351 kts 357°
2026-04-22 11:54 18.62804 98.96125 3499 ft 339 kts
2026-04-22 11:54 18.65124 98.96159 2800 ft 332 kts
2026-04-22 11:55 18.67355 98.96243 2403 ft 313 kts
2026-04-22 11:55 18.69494 98.96305 1916 ft 293 kts
2026-04-22 11:55 18.71386 98.96289 1679 ft 251 kts
2026-04-22 11:55 18.73017 98.96298 1450 ft 214 kts
2026-04-22 11:56 18.74418 98.96281 1215 ft 191 kts
2026-04-22 11:56 18.75692 98.96282 1016 ft 170 kts
2026-04-22 11:56 18.76619 98.96292 1028 ft 95 kts
2026-04-22 11:56 18.77057 98.96291 1037 ft 33 kts 360°
2026-04-22 11:57 18.77147 98.96342 1036 ft 16 kts 83°
2026-04-22 11:57 18.77146 98.96458 1030 ft 15 kts 91°
2026-04-22 11:57 18.77091 98.96521 1029 ft 13 kts 178°
2026-04-22 11:57 18.76994 98.96523 1028 ft 13 kts 179°
2026-04-22 11:58 18.76896 98.96526 1027 ft 14 kts 178°
2026-04-22 11:58 18.76796 98.96529 1027 ft 14 kts 178°